Skip Page Navigation
NASA JPL Caltech
NASA Logo - Jet Propulsion Laboratory + View the NASA Portal
+ Center for Near-Earth Object Studies
JPL Home Earth Solar System Stars & Galaxies Technology
JPL Solar System Dynamics
BODIES ORBITS EPHEMERIDES TOOLS PHYSICAL DATA DISCOVERY FAQ SITE MAP
IMPORTANT: The SSD Announcement email list is now available. Major changes are coming in the near future, including possible hostname and/or URL changes. To be notified of such changes, subscribe to this email list.

Please visit this page for more details.


JPL Small-Body Database Browser
Search: [ help ]  
277562 (2005 YX132)
Classification: Main-belt Asteroid          SPK-ID: 2277562
Ephemeris | Orbit Diagram | Orbital Elements | Mission Design | Physical Parameters | Discovery Circumstances ]

[ show orbit diagram ]
Orbital Elements at Epoch 2458600.5 (2019-Apr-27.0) TDB
Reference: JPL 12 (heliocentric ecliptic J2000)
 Element Value Uncertainty (1-sigma)   Units 
e .07190457746894897 9.1115e-08  
a 2.596879437871816 3.0146e-08 au
q 2.410151919153841 2.3975e-07 au
i 6.500328966958709 7.4102e-06 deg
node 72.43431710803993 6.9137e-05 deg
peri 127.1657751022365 8.5501e-05 deg
M 335.695435476173 4.9539e-05 deg
tp 2458703.695664423612
(2019-Aug-08.19566442)
0.00021066 TDB
period 1528.537536892708
4.18
2.6616e-05
7.287e-08
d
yr
n .2355192406539306 4.101e-09 deg/d
Q 2.783606956589791 3.2313e-08 au
  Orbit Determination Parameters
   # obs. used (total)      155  
   data-arc span      4841 days (13.25 yr)  
   first obs. used      2005-12-04  
   last obs. used      2019-03-07  
   planetary ephem.      DE431  
   SB-pert. ephem.      SB431-N16  
   condition code      0  
   norm. resid. RMS      .63366  
   source      ORB  
   producer      Otto Matic  
   solution date      2019-Jul-14 06:10:49  

Additional Information
 Earth MOID = 1.41309 au 
 Jupiter MOID = 2.18838 au 
 T_jup = 3.404 
[ show covariance matrix ]

Ephemeris | Orbit Diagram | Orbital Elements | Mission Design | Physical Parameters | Discovery Circumstances ]

Physical Parameter Table
Parameter Symbol Value Units Sigma Reference Notes
absolute magnitude H 16.6   n/a MPO427524  

277562 (2005 YX132)          Discovered 2005-Dec-26 by Spacewatch at Kitt Peak
Reference: 20110517/Numbers.arcLast Updated: 2011-05-20
Ephemeris | Orbit Diagram | Orbital Elements | Mission Design | Physical Parameters | Discovery Circumstances ]
ABOUT SSD CREDITS/AWARDS PRIVACY/COPYRIGHT GLOSSARY LINKS
FirstGov 2019-Dec-08 00:26 UT
(server date/time)  
NASA Home Page
Site Manager:   Ryan S. Park
Webmaster  Alan B. Chamberlin